Location: Conflandey
(47.7287°N, 6.0456°E)
Time: 03:50:37
(UTC+00:00)

Cosmos 1980 Rocket - Pass Details

Date: 24 October 2021
Orbit: 828 x 851 km, 71.0° (Epoch: 05 December)

Event Time Altitude Azimuth Distance (km) Brightness Sun altitude
Rises 16:53:05 0° 209° (SSW) 3,382 6.0 -4.4°
Reaches altitude 10° 16:55:31 10° 210° (SSW) 2,455 5.3 -4.8°
Maximum altitude 17:01:10 80° 298° (WNW) 864 2.4 -5.7°
Drops below altitude 10° 17:06:54 10° 26° (NNE) 2,484 4.3 -6.7°
Sets 17:09:22 0° 27° (NNE) 3,426 5.0 -7.1°
